Location: Gokavaram
(16.9752°N, 81.0696°E)
Time: 19:41:58
(UTC+00:00)

Cosmos 2344 - Pass Details

Date: 15 May 2026
Orbit: 1194 x 3048 km, 63.3° (Epoch: 6 June)

Event Time Altitude Azimuth Distance (km) Brightness Sun altitude
Exits shadow 21:57:30 35° 290° (WNW) 2,135 4.4 -28.0°
Maximum altitude 21:57:53 35° 296° (WNW) 2,114 4.4 -27.9°
Drops below altitude 10° 22:04:43 10° 1° (N) 3,213 6.1 -26.6°
Sets 22:07:34 0° 11° (N) 4,114 6.9 -26.0°
